Weather in Dustlik

Uzbekistan     40°31′29″N   68°01′57″E
temp.,
°C
wind,
m/s
gust,
m/s
humid.,
%
clouds,
%
prec.,
mm/h
press.,
hPa
HPBL,
m
16 may, sun
sun1623:00+20nnw36450 0.0 101097
02:00+18wnw36400 0.0 101091
05:00+16w48370 0.0 1011144
08:00+20wnw56300 0.0 1012473
11:00+26w45210 0.0 1012893
14:00+30wnw44140 0.0 10101314
17:00+31n33140 0.0 10091658
20:00+25ne33210 0.0 100923
17 may, mon
mon1723:00+23nnw22250 0.0 100911
02:00+20nnw11330 0.0 101011
05:00+18wnw22480 0.0 101116
08:00+23wnw21350 0.0 1012265
11:00+30ese23220 0.0 1011894
14:00+35ese02151 0.0 10092882
17:00+34nne23130 0.0 10083569
20:00+26sse6112915 0.0 1009301
18 may, tue
tue1823:00+24sse34300 0.0 100849
02:00+23e22320 0.0 100814
05:00+21ese22340 0.0 100812
08:00+26se22270 0.0 1008248
11:00+33ese22170 0.0 10071085
14:00+36sw14114 0.0 10064270
17:00+36nnw36103 0.0 10044410
20:00+28ene33190 0.0 100541
19 may, wed
wed1923:00+25e22310 0.0 100513
02:00+23wsw22300 0.0 100521
05:00+22wsw23260 0.0 100518
08:00+28w34190 0.0 1006320
11:00+34w44110 0.0 10051549
14:00+36wnw3684 0.0 10044459
17:00+36wnw5680 0.0 10044261
20:00+29n221384 0.0 100514
20 may, thu
thu2023:00+26sse0115100 0.0 100611
02:00+24wsw111642 0.0 100611
05:00+23sw1117100 0.0 100611
08:00+28ssw111590 0.0 1007144
11:00+34n231237 0.0 10072025
14:00+36nnw44995 0.0 10064912
17:00+35nne751189 0.0 10052652
20:00+29nne2218100 0.0 100622